Regional Weather Roundup
Issued by NWS

Home | Current Version | Previous Version | Text Only | Print | Product List | Glossary On
Versions: 1 2 3 4 5 6 7 8 9 10 11 12 13 14 15 16 17 18 19 20 21 22 23 24 25 26 27 28 29 30 31 32 33 34 35 36 37 38 39 40 41 42 43 44 45 46 47 48 49 50
000
ASUS43 KDTX 282001
RWRMI
MICHIGAN HOURLY REGIONAL WEATHER ROUNDUP
NATIONAL WEATHER SERVICE DETROIT/PONTIAC MI
400 PM EDT FRI APR 28 2017

NOTE: "FAIR" INDICATES FEW OR NO CLOUDS BELOW 12,000 FEET WITH NO
SIGNIFICANT WEATHER AND/OR OBSTRUCTION TO VISIBILITY.

MIZ047>049-052>055-059>063-066>070-074>076-081>083-282100-
SOUTHEAST LOWER MICHIGAN

CITY           SKY/WX    TMP DP  RH WIND       PRES   REMARKS
ADRIAN         CLOUDY    59  42  53 SW9       30.00S
ALMA           CLOUDY    60  42  51 SW15G28   29.96S
ANN ARBOR      CLOUDY    61  41  47 S10G22    29.98F
BAD AXE        PTSUNNY   63  40  42 W16G25    29.94S
CARO           MOSUNNY   65  45  47 SW15G21   29.93F
DETROIT CITY   CLOUDY    60  42  51 S14G22    29.99S
DETROIT        CLOUDY    62  42  47 S15       30.00F
FLINT          PTSUNNY   64  43  46 SW14G22   29.96R
GROSSE ILE     CLOUDY    60  48  64 S8        29.99F
HILLSDALE      CLOUDY    57  41  54 S5        29.97F
HOWELL         CLOUDY    62  39  43 S12       29.96F

CITY           SKY/WX    TMP DP  RH WIND       PRES   REMARKS
JACKSON        CLOUDY    61  43  51 SW9       29.97F
LAMBERTVILLE   CLOUDY    61  44  53 S7        29.99F
LANSING        CLOUDY    62  41  46 SW10G24   29.96S
LAPEER         FAIR      65  41  40 SW15      29.95S
MASON          CLOUDY    61  43  51 S7        29.96F
MONROE         CLOUDY    62  42  48 S14       30.00S
MT. CLEMENS    PTSUNNY   61  44  55 S18       29.98R
PONTIAC        CLOUDY    62  38  40 SW20G26   29.96S
PORT HOPE        N/A     63  38  39 SW15G28   29.92R
PORT HURON     MOSUNNY   61  41  48 S22G28    29.99S
TRI CITIES     MOSUNNY   62  43  49 W24G31    29.95S
MIDLAND        FAIR      62  39  43 SW16G23   29.94S
TROY           PTSUNNY   64  37  36 SW10G20   30.00S
SAGINAW HB     MOSUNNY   64  41  42 SW15G23   29.94S
$$
MIZ043>046-050>051-056>058-064>065-071>073-077>080-282100-
SOUTHWEST LOWER MICHIGAN

CITY           SKY/WX    TMP DP  RH WIND       PRES   REMARKS
BATTLE CREEK   CLOUDY    59  43  55 SW9       29.96F
BENTON HARBOR  CLOUDY    56  45  66 VRB5      29.91F
BIG RAPIDS     CLOUDY    56  40  53 SW17G25   29.94S
COLDWATER      CLOUDY    58  41  52 SE6       29.95F
FREMONT        CLOUDY    52  38  59 SW9       29.96F
HOLLAND        CLOUDY    54  44  69 W5        29.95F
GRAND RAPIDS   CLOUDY    60  45  57 SW10      29.94F
IONIA          CLOUDY    60  44  55 SW10      29.95F
KALAMAZOO      CLOUDY    59  40  49 SE5       29.95F
LUDINGTON      MOSUNNY   44  36  75 SW5       29.97F
MARSHALL       CLOUDY    60  42  50 S7        29.96F
MOUNT PLEASANT PTSUNNY   59  41  50 SW18      29.95R
MUSKEGON       CLOUDY    52  40  63 SW5       29.96F
SOUTH HAVEN    CLOUDY    52  44  74 CALM      29.94F
$$
MIZ016>042-282100-
NORTHERN LOWER MICHIGAN

CITY           SKY/WX    TMP DP  RH WIND       PRES   REMARKS
ALPENA         SUNNY     61  33  35 W10       29.89R
BEAVER ISLAND  CLOUDY    41  30  64 SW17G24   29.95R
BELLAIRE       MOSUNNY   46  32  58 W9G16     29.96R
CADILLAC       SUNNY     56  31  39 SW15G24   29.91R
CHARLEVOIX     CLOUDY    42  32  68 W15G22    29.99R
FRANKFORT      CLOUDY    43  32  64 SW9       29.98R
GAYLORD        SUNNY     49  32  52 W12G21    29.91R
GRAYLING       SUNNY     58  32  36 SW14G20   29.90R
HARBOR SPRINGS CLOUDY    41  34  74 W10G17    29.95R
HOUGHTON LAKE  SUNNY     58  30  34 SW14G22   29.91R
MANISTEE       PTSUNNY   46  34  62 W14       29.97S
OSCODA         SUNNY     65  32  28 SW21G26   29.89R
PELLSTON       CLOUDY    42  29  59 W9G26     29.95R
ROGERS CITY    MOSUNNY   50  35  56 W12G18    29.91S
TRAVERSE CITY  PTSUNNY   50  34  54 W12       29.93R
$$
MIZ007>008-015-282100-
EASTERN UPPER MICHIGAN

CITY           SKY/WX    TMP DP  RH WIND       PRES   REMARKS
KINROSS        CLOUDY    39  27  62 SW10G17   29.91F WCI  32
MACKINAC ISLAN CLOUDY    37  30  75 W16G22    29.94R WCI  28
NEWBERRY       CLOUDY    40  29  64 W14G22    29.89S WCI  32
S. S. MARIE    CLOUDY    42  28  57 W15G21    29.90R
MUNISING         N/A     42  27  55 W10       29.89R
$$
MIZ004>006-011>014-085-282100-
CENTRAL UPPER MICHIGAN

CITY           SKY/WX    TMP DP  RH WIND       PRES   REMARKS
MANISTIQUE     CLOUDY    43  30  60 SW9G20    29.91R
ESCANABA       CLOUDY    44  28  53 W10G23    29.92R
MENOMINEE      PTSUNNY   48  29  47 W9        29.93R
SAWYER-GWINN   PTSUNNY   39  28  65 SW15      29.88R WCI  31
$$
MIZ001>003-009>011-084-282100-
WESTERN UPPER MICHIGAN

CITY           SKY/WX    TMP DP  RH WIND       PRES   REMARKS
IRON MOUNTAIN  CLOUDY    42  27  55 SW13      29.90R
HOUGHTON       CLOUDY    34  24  67 MISG      29.85R
COPPER HARBOR    N/A     34  29  82 NW9G21    29.86R WCI  27
IRONWOOD       CLOUDY    37  29  72 SW13      29.93R WCI  29
$$

ABBREVIATIONS USED IN REMARKS
   TC - TEMPERATURE IN CELSIUS
  WCI - WIND CHILL INDEX
   HX - HEAT INDEX
  VSB - VISIBILITY





USA.gov is the U.S. government's official web portal to all federal, state and local government web resources and services.